Retour au catalogue

CZ-6A DEB

ActifSSO
NORAD 55901·DEBRIS·🇨🇳 China

Lancé Nov 11, 2022 depuis Taiyuan Satellite Launch Center

Loading…

Prochains Passages (prochaines 24 heures)

TLE

FraisSource: Space-Track

Époque: Sep 14, 2026, 09:55 UTC

1 55901U 22151AAZ 26257.41348971 -.00000145  00000-0 -63488-4 0  9995
2 55901  98.8805 240.5265 0080980 141.7478 218.9472 14.03390627190199

Suivez CZ-6A DEB en temps réel avec AllMySat

Download on the App Store